User: anonymous   Login
Location: Unspecified
(0.0000°N, 0.0000°E)
Time: 04:57:20
(UTC+00:00)
Language:

COSMOS 2389 - Orbit

View from above orbital plane
View from above orbital plane
View from above satellite
View from above satellite

Ground track
Ground track

The orbit data is extracted from the following two-line orbital elements,

1 27436U 02026A   18018.85744374 +.00000040 +00000-0 +25422-4 0  9995
2 27436 082.9516 281.6226 0046056 187.6355 217.1153 13.74921667785059
Epoch (UTC): 18 January 2018 20:34:43
Eccentricity: 0.0046056
inclination: 82.9516°
perigee height: 948 km
apogee height: 1016 km
right ascension of ascending node: 281.6226°
argument of perigee: 187.6355°
revolutions per day: 13.74921667
mean anomaly at epoch: 217.1153°
orbit number at epoch: 78505

The dashed part of the orbit path shows where the satellite is in the earth's shadow,  

DLR